Estherville, IA

6:43 AM CDT on May 29, 2017 (GMT -0500)
Estherville Municipal

Weather History for KEST - January, 2015

Change the Weather History Date:

Thursday, January 29, 2015

  Actual Average Record
Temperature  
Mean Temperature 25 °F 16 °F  
Max Temperature 33 °F 25 °F 43 °F (1976)
Min Temperature 16 °F 8 °F -25 °F (1966)
Degree Days  
Heating Degree Days 40 49  
Month to date heating degree days 1335 1434  
Since 1 July heating degree days 4502 4577  
Cooling Degree Days 0 0  
Month to date cooling degree days 0 0  
Year to date cooling degree days 0 0  
Moisture  
Dew Point 23 °F    
Average Humidity 81    
Maximum Humidity 92    
Minimum Humidity 69    
Precipitation  
Precipitation T in 0.02 in 0.62 in (2001)
Month to date precipitation 0.13 0.44  
Sea Level Pressure  
Sea Level Pressure 30.28 in    
Wind  
Wind Speed 25 mph (NNW)    
Max Wind Speed 37 mph    
Max Gust Speed 47 mph    
Visibility 9 miles    
Events      
T = Trace of Precipitation, MM = Missing Value Source: NWS Daily Summary

Daily Weather History Graph

Daily Weather History Graph

Search for Another Location

Airport or City:

Trip Planner

Search our weather history database for the weather conditions in past years. The results will help you decide how hot, cold, wet, or windy it might be!

Date:

Astronomy

Jan. 29, 2015 Rise Set
Actual Time 7:38 AM CST 5:26 PM CST
Civil Twilight 7:07 AM CST 5:57 PM CST
Nautical Twilight 6:33 AM CST 6:31 PM CST
Astronomical Twilight 5:59 AM CST 7:05 PM CST
Moon 1:14 PM CST 3:11 AM CST
Length of Visible Light 10h 49m
Length of Day
9h 48m
Waxing Gibbous, 76% of the Moon is Illuminated
Jan 29
Waxing Gibbous
Feb 3
Full
Feb 11
Last Quarter
Feb 18
New
Feb 25
First Quarter

Hourly Weather History & Observations

Time (CST) Temp. Windchill Dew Point Humidity Pressure Visibility Wind Dir Wind Speed Gust Speed Precip Events Conditions
12:01 AM 32.0 °F 19.5 °F 30.9 °F 96% 29.89 in 3.0 mi NNW 21.9 mph 31.1 mph N/A   Overcast
12:52 AM 33.1 °F 20.6 °F 30.9 °F 92% 29.96 in 7.0 mi NNW 23.0 mph 32.2 mph N/A   Overcast
1:52 AM 32.0 °F 18.1 °F 30.0 °F 92% 29.99 in 5.0 mi NNW 27.6 mph 33.4 mph N/A   Overcast
2:07 AM 32.0 °F 17.4 °F 30.0 °F 92% 29.96 in 7.0 mi NNW 31.1 mph 40.3 mph N/A   Overcast
2:24 AM 32.0 °F 17.6 °F 30.0 °F 92% 29.97 in 6.0 mi NNW 29.9 mph 38.0 mph N/A   Overcast
2:35 AM 32.0 °F 18.4 °F 30.0 °F 92% 29.97 in 9.0 mi NNW 26.5 mph 38.0 mph N/A   Overcast
2:52 AM 32.0 °F 18.4 °F 30.0 °F 92% 30.03 in 10.0 mi NNW 26.5 mph 35.7 mph N/A   Overcast
3:52 AM 30.9 °F 15.9 °F 28.9 °F 92% 30.06 in 10.0 mi NNW 31.1 mph 36.8 mph 0.00 in   Overcast
4:52 AM 30.9 °F 16.2 °F 28.0 °F 89% 30.10 in 10.0 mi NNW 29.9 mph 39.1 mph N/A   Overcast
5:52 AM 30.0 °F 15.2 °F 26.1 °F 85% 30.15 in 10.0 mi NNW 28.8 mph 41.4 mph N/A   Overcast
6:52 AM 30.0 °F 14.7 °F 26.1 °F 85% 30.19 in 10.0 mi NNW 31.1 mph 41.4 mph N/A   Overcast
7:52 AM 28.9 °F 14.0 °F 25.0 °F 85% 30.22 in 10.0 mi NNW 27.6 mph 41.4 mph N/A   Overcast
8:43 AM 28.0 °F 11.1 °F 23.0 °F 81% 30.22 in 10.0 mi NNW 35.7 mph 44.9 mph N/A   Overcast
8:52 AM 28.0 °F 12.0 °F 23.0 °F 81% 30.27 in 10.0 mi NNW 31.1 mph 46.0 mph N/A   Overcast
9:52 AM 28.9 °F 13.7 °F 24.1 °F 82% 30.32 in 10.0 mi NNW 28.8 mph 38.0 mph N/A   Overcast
10:45 AM 28.9 °F 14.0 °F 23.0 °F 78% 30.30 in 10.0 mi NNW 27.6 mph 39.1 mph N/A   Overcast
10:52 AM 28.9 °F 14.5 °F 24.1 °F 82% 30.35 in 10.0 mi NNW 25.3 mph 33.4 mph N/A   Overcast
11:13 AM 28.9 °F 14.8 °F 24.1 °F 82% 30.30 in 10.0 mi NNW 24.2 mph 34.5 mph N/A   Overcast
11:52 AM 28.9 °F 13.0 °F 21.9 °F 75% 30.37 in 10.0 mi NNW 32.2 mph 42.6 mph N/A   Overcast
12:52 PM 30.0 °F 14.7 °F 21.9 °F 72% 30.38 in 10.0 mi NNW 31.1 mph 39.1 mph N/A   Overcast
1:02 PM 28.9 °F 12.8 °F 21.9 °F 75% 30.34 in 10.0 mi NNW 33.4 mph 40.3 mph N/A   Overcast
1:52 PM 28.0 °F 12.8 °F 19.9 °F 72% 30.39 in 10.0 mi NNW 27.6 mph 39.1 mph N/A   Overcast
2:52 PM 27.0 °F 11.9 °F 19.9 °F 75% 30.41 in 10.0 mi NNW 25.3 mph 34.5 mph N/A   Overcast
3:52 PM 27.0 °F 11.6 °F 19.9 °F 75% 30.44 in 10.0 mi NNW 26.5 mph 33.4 mph N/A   Overcast
4:52 PM 25.0 °F 8.9 °F 19.0 °F 78% 30.46 in 10.0 mi NNW 26.5 mph 32.2 mph N/A   Overcast
5:52 PM 23.0 °F 6.6 °F 17.1 °F 78% 30.50 in 10.0 mi NW 25.3 mph 31.1 mph N/A   Mostly Cloudy
6:13 PM 21.9 °F 6.5 °F 17.1 °F 82% 30.44 in 10.0 mi NNW 20.7 mph - N/A   Scattered Clouds
6:52 PM 21.9 °F 6.9 °F 16.0 °F 78% 30.52 in 10.0 mi NNW 19.6 mph - N/A   Clear
7:52 PM 19.9 °F 3.9 °F 16.0 °F 85% 30.55 in 10.0 mi NNW 20.7 mph - N/A   Clear
8:52 PM 19.0 °F 5.0 °F 14.0 °F 81% 30.56 in 10.0 mi NNW 15.0 mph - N/A   Clear
9:52 PM 18.0 °F 2.6 °F 12.9 °F 81% 30.57 in 10.0 mi NNW 17.3 mph - N/A   Clear
10:52 PM 17.1 °F 2.5 °F 12.9 °F 84% 30.58 in 10.0 mi NNW 15.0 mph - N/A   Clear
11:52 PM 16.0 °F 1.7 °F 12.0 °F 84% 30.60 in 10.0 mi NNW 13.8 mph - N/A   Clear